Temp
6 6 6 6 7 7 7 8 8 8 8 8 8 8 8 8 9 13 10 11 11 5 7 9 9 7 7 7 9 7 9 8 6 7 8 7 8 9 9 10 9 9 8 7 5 6 8 8 8 10 11 9 10 9
6 7 6 6 7 7 8 8 8 8 8 7 7 7 9 8 9 14 9 11 13 7 7 8 10 10 11 10 9 5 8 6 5 5 4 5 7 5 8 9 8 10 10 9 8 8 9 9 11 11 10 11 9 9
7 6 7 7 7 8 8 8 8 8 8 7 7 8 8 8 10 15 11 12 11 6 7 7 7 10 12 13 13 8 5 6 5 5 4 6 9 7 8 9 9 9 7 9 8 10 8 8 9 9 9 9 9 10
6 7 7 8 8 8 8 8 7 7 8 7 7 8 8 9 12 14 13 13 12 6 6 7 8 8 9 11 13 13 7 5 4 5 6 7 9 6 8 9 9 9 8 10 9 9 8 9 9 10 10 9 9 9
7 7 7 8 8 8 8 7 7 7 7 8 7 8 9 11 12 13 12 12 13 9 6 6 6 6 8 11 11 9 7 5 5 6 7 8 6 6 5 6 7 8 9 10 10 10 11 11 10 10 9 9 9 8
6 6 7 8 8 8 7 6 7 7 8 8 8 8 10 11 12 12 6 12 12 13 7 7 4 5 6 8 7 6 5 4 5 7 6 5 4 7 8 8 9 8 7 9 11 9 10 10 10 9 10 9 8 7
7 7 7 7 7 8 6 7 7 7 7 8 8 8 10 12 12 8 8 11 12 13 6 6 6 6 6 6 4 5 4 3 5 5 6 7 6 6 6 8 10 8 8 8 8 8 9 9 11 9 9 8 6 6
7 7 6 7 7 7 6 7 6 6 7 7 7 8 8 9 9 8 10 11 12 9 6 5 5 6 6 5 6 2 5 5 4 4 4 7 5 5 7 8 8 8 8 7 8 9 10 9 8 7 6 5 6 5
6 6 7 7 7 6 6 6 6 6 6 6 6 6 7 8 7 8 10 11 12 9 4 5 6 6 5 3 4 4 4 6 3 6 6 6 7 7 9 9 8 8 8 9 8 8 8 8 8 7 6 6 6 5
7 7 6 6 6 6 6 6 6 6 6 7 8 6 3 6 9 10 11 6 5 4 4 5 4 6 5 3 4 5 3 5 6 7 4 5 7 8 8 8 8 8 8 8 7 7 6 7 6 6 6 6 6 5
6 5 5 5 5 6 5 5 6 6 7 7 2 2 5 6 8 4 4 5 5 6 4 3 4 5 4 6 5 3 4 4 6 7 6 7 6 7 8 9 8 7 7 7 9 9 8 8 6 5 4 4 4 4
5 6 5 5 5 6 5 6 6 7 6 5 4 4 4 4 4 6 4 4 5 8 3 5 5 5 4 4 5 3 6 4 6 4 5 5 7 7 6 6 6 7 7 7 8 9 8 8 7 5 4 4 4 5
5 5 5 5 5 5 6 6 7 6 6 7 5 4 5 3 2 5 3 5 4 3 3 4 5 4 3 4 3 4 4 4 4 4 5 6 6 6 6 6 5 6 6 7 7 8 7 6 6 5 5 5 6 5
5 5 5 5 5 5 5 6 7 7 7 4 3 3 4 2 4 4 6 5 4 4 5 6 3 5 3 5 3 4 5 4 4 4 6 6 6 7 6 5 5 5 6 6 7 7 6 5 5 6 7 7 6 5
5 5 5 5 5 5 6 6 6 7 4 4 5 4 3 3 2 2 2 3 3 6 5 4 4 5 4 3 3 4 4 4 5 6 6 6 5 5 5 4 5 5 3 5 5 5 5 5 6 6 6 6 6 6
4 4 4 4 4 4 6 6 7 6 3 4 3 3 2 2 1 2 3 3 3 6 3 5 4 4 4 5 4 4 6 5 6 6 5 4 5 5 5 4 5 5 5 5 5 5 5 5 6 6 5 5 6 6
3 3 3 4 4 5 6 7 5 4 4 5 2 1 2 3 3 3 3 3 5 6 6 4 4 5 3 4 3 5 5 5 5 5 4 4 5 5 4 4 3 4 5 5 5 6 6 5 5 5 4 5 5 5
2 2 2 2 2 4 4 4 3 4 4 2 3 2 2 2 2 2 2 4 6 7 5 6 4 4 4 6 5 4 4 3 2 3 3 4 4 4 4 5 4 5 5 5 6 5 5 5 4 4 5 5 4 4
1 1 1 2 3 4 3 4 3 3 2 2 1 1 2 1 1 2 2 5 3 3 4 4 5 5 5 5 5 4 3 4 5 4 3 3 3 4 5 5 5 5 5 5 5 5 6 6 6 6 5 4 4 4
1 1 3 4 5 4 4 3 3 3 3 1 2 2 2 2 2 1 3 4 3 5 6 5 5 5 5 4 3 4 3 2 3 4 4 3 3 4 4 5 5 5 5 5 5 5 4 4 5 5 5 4 4 4
1 1 2 3 3 3 2 2 2 2 1 2 2 3 2 2 2 2 3 2 3 4 5 4 4 3 2 3 3 3 2 2 4 5 5 4 2 4 4 5 5 5 4 3 3 3 4 5 7 5 5 4 4 3
0 1 1 2 1 2 2 1 2 1 2 2 3 3 3 3 3 3 1 3 3 6 3 3 3 3 3 4 4 5 5 4 4 3 4 3 3 3 3 3 3 3 4 5 5 5 6 7 5 5 4 3 3 2
1 1 0 1 1 0 0 0 2 1 2 2 2 3 3 3 2 1 2 3 3 1 2 3 4 4 4 5 5 5 5 5 3 3 4 5 5 5 5 5 5 4 3 5 6 6 6 5 4 3 2 2 1 1
4 1 0 0 0 -1 -1 -1 1 2 2 2 3 3 2 2 1 2 3 3 2 1 2 3 3 2 2 2 3 4 5 6 5 4 4 4 3 4 5 6 6 7 7 7 6 5 4 3 3 1 1 -1 -2 -3
1 0 0 -0 -1 0 -2 -0 1 1 -1 1 2 1 1 2 2 1 3 2 1 1 2 2 2 4 5 4 3 4 6 6 3 3 6 5 5 3 3 4 5 5 5 4 3 2 1 1 -0 -1 -2 -2 -3 -3
-0 -0 -0 -2 -2 -1 -1 -1 -1 -0 1 1 2 2 2 1 1 1 2 1 1 3 1 2 3 2 2 4 4 3 4 6 5 2 5 6 5 4 4 2 2 4 5 5 4 2 -0 -2 -2 -2 -3 -3 -3 -3
1 0 -0 -0 0 1 -1 -0 2 1 0 1 1 0 1 1 0 1 -0 -1 1 2 4 4 3 3 4 2 3 5 6 6 5 4 5 6 6 6 5 4 3 6 7 6 4 4 2 -1 -2 -2 -3 -3 -3 -3
-0 -0 -1 -1 -2 -0 -1 -1 -0 1 1 1 1 0 1 1 1 1 1 3 4 3 3 3 3 4 4 4 4 5 4 3 3 2 3 3 5 5 5 5 5 5 5 5 5 3 2 2 2 0 -1 -1 -2 -3
-1 -0 -1 -5 -5 -4 -3 -2 -1 0 1 2 2 1 1 1 1 1 2 3 4 3 0 -1 -1 1 2 2 3 3 3 3 0 -1 -0 1 0 3 5 5 5 4 3 3 3 3 3 3 4 3 2 0 -1 -2
-1 0 -3 -5 -4 -2 -1 -1 0 -1 0 1 1 1 0 -0 1 3 3 2 2 2 5 4 2 2 1 1 1 1 2 3 3 3 1 2 2 5 4 4 4 3 3 3 2 0 1 2 1 0 -1 -2 -3 -3
-0 -2 -3 -4 -3 -2 -2 -4 -4 -3 -2 -1 -3 1 1 -1 0 2 2 3 3 4 3 1 1 2 3 1 1 -0 0 4 5 4 4 3 3 3 4 4 3 2 2 2 1 1 1 1 0 -1 -2 -2 -3 -3
-5 -3 -2 -3 -4 -6 -6 -4 -3 -2 -3 -0 -0 -3 -3 -2 -0 -2 4 2 1 0 2 3 1 2 5 6 6 6 6 6 5 5 5 4 3 3 3 3 2 2 1 1 1 2 1 1 -0 -1 -2 -3 -3 -3
-6 -6 -6 -5 -4 -3 -5 -2 -3 -3 -4 -2 -2 -2 -1 -0 0 -1 2 4 6 6 5 6 6 6 6 7 6 6 6 5 5 4 4 4 4 3 3 3 2 1 1 1 1 1 1 0 -1 -2 -2 -3 -3 -4
Height
558 572 583 593 601 613 621 631 642 654 665 678 688 702 714 727 732 736 742 746 751 781 796 797 799 807 818 824 829 849 854 859 868 871 873 877 874 874 874 871 875 878 887 895 909 905 885 871 881 875 865 868 867 870
564 573 584 596 607 615 625 636 647 658 669 682 692 707 718 729 734 736 746 749 750 768 792 797 798 803 803 806 820 842 839 848 857 870 881 879 873 884 873 865 874 869 863 869 876 866 859 859 853 856 859 859 864 866
574 583 588 602 610 618 629 639 650 661 672 684 695 709 719 729 736 738 742 744 755 778 796 800 806 808 807 810 811 830 846 844 850 852 865 868 859 871 867 862 863 864 866 863 868 850 856 856 854 855 857 857 859 861
579 588 597 604 613 623 633 644 654 663 674 686 699 712 724 733 737 737 741 751 758 776 799 813 809 811 812 814 815 819 826 838 845 852 856 858 856 866 858 856 856 855 860 853 855 851 855 852 850 847 851 855 856 858
587 595 603 611 621 631 639 649 658 668 677 690 702 714 722 728 734 738 748 760 762 769 802 812 814 817 816 816 819 822 827 836 845 851 854 853 861 862 867 862 854 849 841 843 839 836 836 837 839 843 847 848 851 855
593 601 609 618 627 635 647 654 663 670 681 694 707 717 727 733 740 748 765 768 765 770 790 812 823 822 821 821 825 830 833 839 845 847 852 856 859 857 854 848 830 832 832 828 828 834 837 837 838 839 841 844 848 852
600 607 615 622 631 640 650 658 665 675 688 699 710 721 731 738 743 749 761 765 769 771 791 815 823 827 826 827 834 837 839 843 844 851 851 851 853 856 854 837 821 823 825 828 831 834 837 837 833 836 838 842 847 851
604 611 618 625 633 644 654 662 673 684 694 704 715 727 736 741 748 759 761 766 771 775 789 812 827 827 827 834 838 842 842 844 849 852 855 849 856 856 843 818 818 819 821 824 826 828 829 832 834 836 838 842 847 851
609 615 622 630 639 648 657 667 678 688 698 709 719 732 741 750 758 765 771 773 773 778 797 806 814 824 829 837 840 842 843 846 854 848 849 850 843 836 811 809 811 812 813 813 819 824 829 831 832 835 838 842 844 849
613 620 627 635 644 653 661 670 681 692 702 715 728 738 756 759 761 767 774 777 779 787 794 803 811 818 827 835 841 842 847 846 845 842 849 845 821 811 803 804 804 806 808 813 819 823 827 829 831 833 834 836 839 844
619 626 633 640 649 657 667 675 685 698 709 716 734 750 757 761 768 780 792 793 793 793 797 805 808 816 827 826 836 845 845 848 844 837 841 827 814 796 788 791 796 800 803 807 808 810 814 818 824 830 833 836 839 843
625 631 639 646 655 663 673 683 692 701 709 717 730 753 762 768 776 779 790 792 789 782 798 799 806 811 822 825 830 845 839 847 837 844 842 823 795 786 787 788 791 796 800 804 807 810 813 817 820 824 828 833 837 840
630 637 646 653 662 671 681 692 698 707 714 724 742 757 760 772 782 774 789 781 786 786 793 795 803 811 822 824 834 836 840 843 842 842 825 803 786 784 786 788 790 793 796 800 805 809 812 816 820 823 827 831 834 837
637 645 651 661 668 679 687 696 703 708 716 733 747 759 757 767 761 758 754 761 767 773 779 786 801 803 816 820 831 832 830 835 838 835 806 784 781 781 784 787 789 792 796 799 804 808 811 815 818 822 825 828 832 835
646 653 660 669 677 684 693 702 708 712 725 736 737 749 753 751 755 755 757 761 767 769 777 790 799 801 813 823 823 825 833 827 815 797 788 780 779 781 783 786 788 791 797 800 804 807 811 814 817 821 824 828 831 833
655 663 672 677 684 693 700 707 713 720 730 733 738 744 749 750 758 758 759 763 764 770 779 782 795 802 806 805 813 812 810 805 787 782 779 780 780 782 783 785 788 791 794 798 802 806 809 813 816 820 824 826 828 830
664 670 679 685 694 701 708 713 718 726 732 734 742 742 743 744 747 752 755 760 763 767 773 782 792 791 802 803 806 795 791 779 776 777 778 777 778 781 784 786 789 792 795 798 802 805 809 813 817 820 823 824 826 828
672 681 687 693 700 708 716 719 724 728 734 739 739 743 743 743 746 751 754 758 761 763 770 772 781 787 789 782 784 776 775 775 776 776 775 775 778 782 783 785 788 791 794 798 801 805 808 811 814 816 819 821 823 825
684 689 695 699 705 709 720 725 727 733 741 742 743 743 743 745 747 748 752 757 760 763 767 772 772 774 772 770 766 768 770 770 770 773 774 774 777 780 783 785 787 791 794 797 800 802 804 806 809 811 814 816 818 820
691 696 700 706 708 714 723 729 729 731 736 741 741 743 744 745 750 752 755 758 761 764 765 765 764 762 763 762 763 763 764 767 770 772 773 776 777 779 782 783 785 788 793 796 799 800 803 805 806 808 810 812 814 816
699 704 707 709 715 718 724 730 731 735 738 739 742 742 748 750 752 754 757 759 762 759 760 760 759 758 759 759 759 759 761 765 767 767 770 775 776 777 779 782 784 787 790 792 794 797 800 800 802 805 807 809 811 813
705 709 713 718 721 724 727 730 731 736 738 741 742 743 746 748 750 753 756 759 756 747 753 754 756 757 758 758 757 757 760 765 767 768 769 771 775 778 779 779 782 785 787 788 789 790 792 795 799 802 804 806 808 810
708 712 717 720 723 726 735 732 733 737 741 743 744 743 747 748 750 754 754 750 747 744 746 749 750 751 752 753 755 757 759 763 766 768 769 771 771 771 773 775 777 779 782 784 786 787 789 792 795 798 801 803 805 807
708 712 719 722 723 732 733 736 733 737 741 743 742 744 746 749 752 752 747 744 741 740 742 742 745 749 752 754 754 755 757 760 762 765 767 770 770 770 770 772 773 775 777 778 781 784 786 788 791 794 797 800 803 804
716 719 720 721 727 730 738 736 735 736 745 744 742 746 746 748 750 753 744 739 736 735 734 736 739 739 742 745 747 749 752 755 757 761 762 764 767 769 768 768 769 769 772 775 777 778 780 783 787 790 793 795 798 800
713 713 716 722 727 727 728 736 736 737 737 739 738 739 742 745 749 746 736 729 726 724 727 728 729 735 737 736 740 743 744 748 752 756 757 760 762 764 764 765 764 763 765 767 769 772 775 778 782 786 789 792 794 796
699 700 705 707 709 712 723 722 722 726 732 733 736 742 741 743 746 734 722 717 716 714 715 718 722 725 727 731 735 738 740 742 744 747 750 753 755 757 758 758 758 757 760 761 763 766 768 771 775 780 784 787 789 792
688 692 699 705 709 707 716 718 720 720 721 721 726 734 732 733 727 715 711 707 709 710 712 715 718 721 724 727 731 733 735 738 740 743 745 747 748 749 750 751 752 753 755 756 757 759 762 765 769 773 777 781 784 787
682 685 694 712 714 712 712 711 710 707 706 710 715 719 717 711 706 704 705 706 707 709 712 715 719 721 724 725 728 730 731 733 738 741 742 741 742 741 742 743 745 746 748 751 752 754 757 762 765 769 773 777 780 783
676 677 691 703 707 704 698 695 695 694 697 698 699 703 704 702 699 700 701 703 706 707 708 711 714 718 720 723 725 727 729 730 731 732 734 734 734 734 735 736 737 739 742 745 748 752 758 761 765 768 771 774 777 780
666 676 685 692 691 688 688 690 692 694 696 697 699 698 699 700 698 699 700 701 703 705 707 710 713 715 717 719 721 723 724 724 725 726 727 728 730 730 730 731 733 735 738 740 744 748 753 757 761 765 768 771 774 776
669 672 675 686 689 689 689 690 692 692 697 695 697 701 704 704 704 699 695 698 701 704 704 705 707 709 711 713 715 717 718 719 720 721 722 722 724 726 727 728 730 732 735 738 742 746 750 753 757 761 765 768 771 773
669 671 677 680 685 685 690 686 691 696 698 696 696 695 695 696 700 693 690 691 692 693 694 695 698 701 704 706 708 711 713 714 716 717 718 718 719 721 723 724 726 728 732 735 739 742 746 750 754 758 762 765 767 770
Wind_Speed
49 46 45 44 37 38 43 46 46 48 51 58 58 55 52 35 24 25 15 9 7 3 3 2 5 7 5 4 7 8 4 1 2 3 3 3 3 5 3 5 7 9 7 4 3 4 7 10 8 7 5 4 6 6
42 42 43 43 42 44 49 48 50 49 54 57 61 61 42 36 23 27 14 26 25 7 4 7 11 15 2 11 11 2 3 6 5 4 2 3 2 2 4 4 2 5 5 5 9 6 3 17 6 14 6 5 4 4
43 43 43 43 40 38 40 44 47 53 53 56 57 64 41 32 26 25 29 29 20 4 5 6 4 7 14 23 32 5 1 4 3 2 4 2 2 4 5 5 5 4 5 3 2 6 9 13 12 5 9 10 6 6
40 43 42 39 36 36 40 43 49 54 56 57 53 56 40 33 29 30 27 19 16 7 4 1 5 6 7 22 14 11 17 9 9 2 2 2 2 4 3 1 4 3 9 7 5 7 2 9 14 14 12 9 7 6
39 39 40 41 42 40 34 43 52 55 58 53 52 46 34 31 28 29 27 12 10 10 4 3 3 9 8 12 14 23 24 7 2 2 2 2 2 3 1 0 5 7 7 7 7 8 6 3 11 11 11 11 10 9
36 37 39 41 43 40 38 47 53 53 53 54 57 43 38 41 40 35 4 10 22 17 4 3 1 6 9 19 21 16 11 4 2 3 2 2 1 2 3 3 6 11 8 7 4 4 5 2 3 6 7 8 12 12
36 37 40 41 43 37 42 47 47 49 49 59 53 41 37 37 29 10 5 17 19 14 4 3 2 2 4 6 4 5 7 3 2 2 1 2 2 3 2 5 5 10 14 11 5 6 3 5 4 10 7 10 13 11
35 35 39 44 45 46 53 50 53 53 53 53 47 39 33 28 27 11 23 21 12 13 5 4 2 2 1 2 2 3 2 2 3 2 1 2 2 2 5 11 7 4 7 8 10 10 3 2 5 7 9 15 13 10
37 43 49 46 50 53 55 58 57 56 54 52 49 43 33 14 5 11 19 16 14 7 4 3 5 4 2 2 2 2 1 2 1 2 2 4 4 7 10 8 9 11 9 5 11 11 5 5 6 8 10 11 11 11
42 42 48 54 53 59 60 61 60 61 60 57 41 10 3 5 28 18 9 5 4 3 2 3 2 4 2 1 2 2 1 2 2 2 3 4 5 9 13 11 8 9 12 8 7 8 6 5 8 10 13 15 15 16
49 53 57 59 60 61 62 65 67 64 51 16 4 3 26 19 7 4 2 2 0 1 1 3 3 5 1 3 3 0 2 1 2 2 3 3 4 7 10 17 12 10 14 14 9 12 15 9 9 9 8 11 13 14
53 55 59 60 62 61 63 66 64 30 10 13 25 20 8 3 2 5 2 2 3 5 3 5 4 3 2 2 3 2 3 2 4 3 2 4 5 6 5 4 10 13 15 13 12 12 12 10 13 14 12 15 15 15
54 58 60 62 62 64 65 54 36 56 56 26 8 3 3 1 5 8 8 3 3 5 5 5 5 4 2 2 3 2 4 5 4 3 4 5 3 3 3 2 6 13 14 14 10 10 9 9 9 14 14 16 17 15
55 57 58 60 65 63 49 44 59 39 11 3 4 6 4 3 5 5 5 5 3 5 11 8 4 3 2 3 3 4 3 4 3 4 6 4 5 6 4 3 7 9 10 11 11 11 11 13 13 14 18 19 18 16
53 54 57 62 61 47 55 52 32 13 5 3 4 5 4 2 3 3 3 4 2 10 9 5 4 3 2 4 3 4 4 5 6 5 3 3 2 4 5 5 8 9 7 9 12 12 14 16 17 17 15 14 13 13
48 50 49 54 46 50 46 33 11 5 3 2 3 4 2 3 2 2 2 3 3 10 4 3 4 3 3 4 4 7 7 7 4 4 3 2 2 5 6 6 9 13 14 14 16 16 17 16 16 13 11 12 12 13
31 15 40 46 42 32 30 16 4 4 3 3 1 2 2 3 3 3 3 4 13 10 5 3 5 5 4 3 4 5 5 3 3 2 2 4 6 7 6 9 13 15 15 16 15 14 13 11 10 8 8 11 11 11
34 43 38 36 33 22 16 5 3 3 3 1 2 2 2 2 4 3 2 7 8 7 4 3 5 4 5 6 4 4 5 2 2 2 2 3 5 9 14 13 16 18 17 16 15 14 13 13 11 11 10 7 7 8
33 29 29 27 21 8 3 3 4 3 2 2 2 1 2 2 2 3 3 11 3 4 5 2 3 3 3 3 3 2 3 3 3 3 1 4 10 15 16 16 18 17 17 16 15 16 16 16 14 10 9 9 9 7
26 25 27 18 7 6 3 2 1 3 2 2 2 2 2 3 2 2 5 7 3 3 2 3 4 3 3 3 4 2 2 4 3 2 1 2 9 16 17 18 16 19 16 13 12 13 12 10 12 12 11 11 10 8
20 18 16 11 7 8 3 2 2 2 2 2 2 2 2 2 2 2 3 2 2 3 3 3 2 2 4 2 5 5 5 7 4 2 3 4 8 13 15 17 17 19 14 13 12 13 15 17 14 14 13 12 10 8
7 11 7 5 3 2 3 2 3 2 2 2 2 2 2 2 2 2 3 2 3 6 3 3 3 3 3 3 5 7 5 11 4 3 7 12 5 5 7 14 15 12 15 18 19 18 19 18 13 14 14 12 9 8
13 6 4 1 3 2 1 1 3 1 3 3 1 3 1 2 1 1 2 3 3 2 6 4 5 10 7 7 8 6 6 11 7 9 10 12 14 17 17 21 23 17 13 19 19 19 17 13 15 16 14 11 10 9
6 4 3 2 2 3 1 2 2 3 2 2 3 3 3 2 2 1 3 2 2 2 5 7 8 3 2 4 3 6 14 15 12 10 12 11 7 13 19 22 24 25 24 19 17 18 14 14 17 17 14 11 9 8
5 2 1 2 1 4 3 3 2 2 3 3 3 1 3 2 2 3 3 3 2 4 6 6 7 7 7 6 6 14 21 19 12 6 17 18 17 9 9 16 18 22 21 19 14 18 17 17 19 18 15 13 11 10
5 6 9 8 4 5 5 5 5 5 3 3 4 3 2 3 3 5 3 3 4 6 6 9 9 7 6 9 6 7 18 22 20 10 18 20 23 18 11 6 6 16 21 24 24 23 20 20 19 19 15 14 12 11
6 5 4 2 4 5 3 2 3 3 4 5 4 4 3 4 6 4 3 3 3 9 18 20 17 12 8 10 19 20 16 16 21 15 20 24 27 30 29 17 14 26 22 22 26 27 26 24 23 21 17 14 15 14
4 5 8 8 3 3 6 4 5 7 5 4 6 5 8 8 6 3 4 3 11 6 9 8 13 15 13 12 11 9 10 15 14 13 12 13 15 18 21 24 25 24 19 16 21 27 29 27 25 22 21 19 18 15
3 5 6 2 2 2 4 5 5 4 5 6 7 5 5 4 3 3 6 10 14 15 12 9 7 9 8 7 9 10 10 14 13 6 6 5 3 17 22 21 20 21 21 18 19 22 25 24 20 19 18 16 13 12
5 6 4 5 6 5 5 6 5 3 3 4 3 1 1 2 4 8 11 16 16 13 17 15 15 15 11 10 7 7 11 15 18 16 5 6 9 17 15 18 19 18 19 19 20 21 21 19 17 17 16 15 15 15
8 3 4 3 6 5 3 3 2 2 2 3 0 3 3 1 2 7 14 18 17 15 14 10 12 15 13 13 10 6 5 12 14 17 20 20 15 9 10 16 19 18 20 21 26 29 28 25 23 21 19 17 15 13
3 5 6 3 2 1 2 3 3 3 3 3 3 2 1 2 2 2 11 19 14 12 20 20 17 17 24 20 17 14 11 9 9 8 9 13 18 17 13 14 18 21 23 27 31 30 28 26 25 22 19 17 15 13
3 3 3 4 3 4 3 4 2 3 1 3 4 5 5 5 6 4 7 22 25 28 27 29 29 27 25 23 22 21 19 17 15 13 12 11 12 16 16 15 18 22 26 29 30 29 28 25 23 21 18 16 13 11
Wind_Direction
154 160 160 165 165 173 169 166 168 172 174 171 165 167 163 155 148 134 110 137 119 89 97 170 154 136 107 136 143 161 109 261 87 121 156 181 164 201 182 168 168 177 168 185 151 214 262 157 130 195 204 187 217 216
155 155 156 156 166 163 163 165 169 174 173 164 161 162 150 153 140 133 108 102 105 89 127 93 111 162 78 153 128 11 129 147 162 106 180 130 153 176 181 203 135 203 196 178 201 215 218 181 183 207 177 195 189 204
154 158 151 161 155 155 160 165 170 170 167 160 164 162 151 149 152 147 111 103 87 85 54 48 21 105 148 157 145 125 241 133 150 134 152 134 185 152 181 225 185 226 176 219 157 210 213 205 222 215 201 225 200 220
153 158 161 156 155 158 161 165 167 163 165 160 162 156 152 153 156 127 108 105 99 104 99 5 58 60 122 153 143 157 130 104 108 101 109 141 189 202 205 137 209 199 157 188 248 265 283 236 226 234 231 227 225 203
156 160 161 155 158 158 155 163 158 162 157 162 156 150 140 146 141 125 103 90 119 111 130 107 95 31 134 147 127 138 126 110 117 107 110 176 133 157 216 197 227 189 184 180 215 205 187 215 206 220 215 216 194 164
159 161 156 157 159 157 165 160 159 160 159 154 147 142 140 137 135 125 63 64 105 113 107 103 352 22 80 119 102 85 80 79 86 129 159 171 171 184 204 235 246 208 212 190 215 182 203 141 179 190 207 191 173 168
159 160 158 160 162 161 164 162 161 157 156 154 149 144 141 141 136 79 166 153 126 104 92 102 79 27 78 80 54 56 47 81 88 115 139 145 154 187 247 240 242 213 223 216 192 137 200 207 227 200 186 161 152 148
159 159 157 161 160 163 159 157 152 151 153 155 151 142 138 120 102 83 106 126 124 92 77 108 82 111 33 72 88 353 84 47 31 111 137 164 134 172 254 240 231 230 217 210 201 201 171 121 171 151 143 146 148 154
154 159 159 158 157 156 154 151 149 146 140 135 131 126 115 95 72 112 106 94 77 86 112 102 138 164 117 90 101 75 37 93 31 190 220 164 190 221 234 230 214 203 195 199 193 190 193 210 186 167 154 163 160 165
154 155 156 155 158 149 143 142 141 139 133 128 125 77 81 110 114 91 35 18 21 5 51 94 111 124 122 154 90 114 7 137 202 230 119 222 249 249 249 224 229 204 197 150 142 189 177 199 187 182 191 185 180 171
154 150 146 145 146 145 140 140 138 133 135 122 82 77 124 116 76 54 82 115 210 94 103 118 117 124 186 115 119 297 157 136 215 208 215 249 259 242 246 227 212 203 188 191 201 182 178 175 178 175 179 177 175 176
150 150 145 144 144 145 144 143 139 136 119 123 112 117 131 86 74 115 149 135 192 186 140 129 147 121 140 137 108 197 131 143 245 138 223 260 250 249 250 240 207 186 185 184 186 176 180 185 190 183 169 174 182 188
149 146 144 143 143 145 146 139 136 120 115 106 74 102 139 285 81 163 183 199 154 157 162 158 133 130 125 79 81 135 148 208 121 205 235 238 252 264 240 211 190 180 173 173 164 170 173 180 182 184 177 184 183 189
148 148 144 144 146 140 140 138 133 128 94 84 138 150 178 177 213 190 165 148 149 136 145 141 113 125 130 112 142 140 164 138 209 231 236 243 230 228 206 193 156 164 168 161 168 173 171 172 172 176 178 178 185 196
147 146 145 146 143 140 139 137 135 103 93 126 145 166 184 140 72 114 106 99 112 146 134 108 79 104 116 116 196 119 148 233 220 231 230 250 252 186 176 173 163 153 146 149 161 163 167 164 165 172 180 183 196 211
135 132 140 140 137 135 143 144 123 81 68 84 91 98 73 78 86 114 112 108 165 144 116 84 124 120 173 142 146 202 180 218 237 214 229 228 177 177 170 158 151 152 152 153 162 162 160 167 175 183 189 202 213 223
124 123 136 138 134 128 138 136 72 57 109 106 95 59 132 100 134 146 128 152 158 156 153 127 126 181 111 168 208 190 208 217 212 216 219 201 187 182 163 148 149 150 151 155 156 164 171 173 178 182 203 222 230 235
114 125 122 124 130 118 117 46 90 87 77 82 119 167 123 87 115 113 130 151 158 175 145 166 130 174 186 185 216 222 218 222 214 236 222 193 192 178 171 160 162 163 160 163 166 163 165 169 184 211 223 222 221 227
126 129 127 129 126 109 92 33 36 95 103 134 117 99 85 105 61 92 126 165 80 108 115 116 153 187 207 216 214 207 197 192 188 197 210 207 194 179 180 172 167 169 173 173 174 181 188 196 207 211 211 208 219 233
107 128 134 130 96 60 74 22 74 105 127 172 90 99 87 83 93 98 142 160 123 137 184 201 202 202 192 214 199 184 166 159 142 127 132 197 190 177 177 173 176 180 178 180 187 184 187 200 212 211 209 212 206 218
105 107 139 128 36 64 104 138 64 74 119 90 113 89 84 97 109 131 150 148 148 199 209 210 209 203 197 186 166 140 142 159 180 175 168 174 190 183 180 186 179 177 172 178 180 195 201 211 216 210 205 205 208 212
116 114 102 88 85 32 84 17 114 124 84 115 115 108 111 115 134 158 127 161 231 208 171 165 181 165 173 186 180 172 155 188 193 155 143 143 144 164 185 182 169 184 194 196 197 199 210 219 213 204 201 201 200 195
124 106 78 87 93 70 142 161 90 57 112 154 129 120 133 139 164 115 189 209 238 219 171 179 186 188 187 165 160 163 175 182 198 213 205 206 205 201 197 194 195 188 198 217 218 221 222 214 204 197 196 195 192 190
109 96 118 119 92 111 58 88 99 104 93 155 168 139 160 153 149 193 240 232 231 174 178 184 162 136 104 132 176 201 201 200 209 234 225 210 216 222 216 215 214 218 223 229 223 220 214 206 198 193 193 187 189 199
102 216 93 185 133 134 111 110 118 108 136 173 135 142 160 146 165 213 235 244 216 202 199 187 192 196 188 195 202 212 214 204 189 206 226 216 226 229 223 228 230 233 232 224 213 205 204 200 198 196 188 187 192 200
194 188 179 169 169 142 161 135 169 163 136 148 188 119 138 139 170 239 230 209 205 199 194 196 200 196 220 209 190 202 213 214 216 208 241 237 231 223 221 211 221 237 226 225 220 205 195 198 193 192 194 200 198 199
190 177 158 175 144 127 99 102 132 128 164 172 161 160 153 190 225 245 255 219 204 219 212 210 189 197 207 193 225 235 228 220 218 229 246 250 249 247 242 230 230 250 253 235 223 218 208 196 193 196 194 198 210 216
172 153 151 175 155 164 144 150 155 176 179 175 136 172 180 194 220 225 209 228 195 169 160 182 207 216 216 219 216 206 207 216 219 222 235 241 241 241 243 245 247 253 255 247 236 226 219 210 201 199 200 202 207 208
143 142 115 126 104 152 177 166 194 196 163 163 172 181 212 215 221 193 197 176 169 158 137 137 137 155 158 162 176 190 193 186 164 178 212 232 251 244 236 236 238 237 237 235 231 226 215 204 199 198 200 206 210 205
151 157 112 131 151 193 221 183 190 181 174 164 151 80 339 266 218 188 164 163 168 184 185 181 172 169 172 174 182 204 212 215 221 218 211 229 244 266 248 230 224 218 210 207 203 191 190 185 181 178 183 187 190 198
138 117 102 129 187 201 198 155 112 105 111 150 221 172 198 300 305 209 202 198 197 187 172 170 186 196 188 188 193 197 239 230 234 239 243 245 250 257 246 229 220 209 199 195 184 179 177 179 185 184 186 190 196 204
141 157 136 127 234 246 109 136 145 150 167 148 184 96 75 78 229 268 207 197 185 190 210 202 194 208 214 222 226 227 234 233 240 247 246 243 237 233 241 233 216 207 198 190 187 187 187 188 187 191 193 196 201 210
81 84 87 102 109 162 208 123 139 132 133 189 211 194 188 167 205 254 220 205 209 215 222 226 228 229 228 229 232 236 239 245 245 245 246 248 239 222 224 221 211 205 198 194 192 192 191 192 191 191 194 196 200 205